User: anonymous   Login
Location: Unspecified
(0.0000°N, 0.0000°E)
Time: 19:11:32
(UTC+02:00)
Language:

Meteor PRIRODA - Orbit

View from above orbital plane
View from above orbital plane
View from above satellite
View from above satellite

Ground track
Ground track

The orbit data is extracted from the following two-line orbital elements,

1 12585U 81065A   16149.96733881  .00001172  00000-0  58389-4 0  9995
2 12585  97.3872 130.1996 0013700 307.7516 115.6028 15.19449856903915
Epoch (UTC): 28 May 2016 23:12:58
Eccentricity: 0.0013700
inclination: 97.3872°
perigee height: 498 km
apogee height: 517 km
right ascension of ascending node: 130.1996°
argument of perigee: 307.7516°
revolutions per day: 15.19449856
mean anomaly at epoch: 115.6028°
orbit number at epoch: 90391

The dashed part of the orbit path shows where the satellite is in the earth's shadow,  

DLR